Weather History for Clinton, MO

Change the Weather History Date:

Sunday, July 28, 2013

  Actual Average (KSZL) Record (KSZL)
Temperature  
Mean Temperature 66 °F -  
Max Temperature 75 °F 86 °F 102 °F (2011)
Min Temperature 57 °F 68 °F 54 °F (2013)
Cooling Degree Days 1    
Growing Degree Days 16 (Base 50)    
Moisture  
Dew Point 54 °F    
Average Humidity 67    
Maximum Humidity 94    
Minimum Humidity 41    
Precipitation  
Precipitation 0.00 in - - ()
Sea Level Pressure  
Sea Level Pressure 30.05 in    
Wind  
Wind Speed 1 mph (WSW)    
Max Wind Speed 7 mph    
Max Gust Speed -    
Visibility 10 miles    
Events      
Averages and records for this station are not official NWS values.
T = Trace of Precipitation, MM = Missing Value Source: NWS Daily Summary

Daily Weather History Graph

Daily Weather History Graph

Search for Another Location

Airport:

Trip Planner

Search our weather history database for the weather conditions in past years. The results will help you decide how hot, cold, wet, or windy it might be!

Date:

Astronomy

Jul. 28, 2013 Rise Set
Actual Time 6:13 AM CDT 8:28 PM CDT
Civil Twilight 5:44 AM CDT 8:57 PM CDT
Nautical Twilight 5:07 AM CDT 9:34 PM CDT
Astronomical Twilight 4:27 AM CDT 10:13 PM CDT
Moon 11:56 PM CDT (7/28) 12:50 PM CDT (7/28)
Length of Visible Light 15h 13m
Length of Day
14h 14m
Waning Gibbous, 60% of the Moon is Illuminated
Jul 28
Waning Gibbous
Jul 29
Last Quarter
Aug 6
New
Aug 14
First Quarter
Aug 20
Full

Hourly Weather History & Observations

Time (CDT) Temp. Dew Point Humidity Pressure Visibility Wind Dir Wind Speed Gust Speed Precip Events Conditions
12:15 AM 62.6 °F 53.6 °F 72% 30.03 in 10.0 mi Calm Calm - N/A   Clear
12:35 AM 59.0 °F 53.6 °F 82% 30.04 in 10.0 mi Calm Calm - N/A   Clear
12:55 AM 60.8 °F 53.6 °F 77% 30.04 in 10.0 mi Calm Calm - N/A   Clear
1:15 AM 60.8 °F 53.6 °F 77% 30.02 in 10.0 mi Calm Calm - N/A   Clear
1:35 AM 59.0 °F 53.6 °F 82% 30.03 in 10.0 mi Calm Calm - N/A   Clear
1:55 AM 57.2 °F 55.4 °F 94% 30.03 in 10.0 mi Calm Calm - N/A   Clear
2:15 AM 57.2 °F 53.6 °F 88% 30.03 in 10.0 mi Calm Calm - N/A   Clear
2:35 AM 57.2 °F 53.6 °F 88% 30.03 in 10.0 mi Calm Calm - N/A   Clear
2:55 AM 57.2 °F 53.6 °F 88% 30.03 in 10.0 mi Calm Calm - N/A   Partly Cloudy
3:15 AM 57.2 °F 53.6 °F 88% 30.03 in 10.0 mi Calm Calm - N/A   Scattered Clouds
3:35 AM 57.2 °F 53.6 °F 88% 30.04 in 10.0 mi Calm Calm - N/A   Mostly Cloudy
3:55 AM 59.0 °F 55.4 °F 88% 30.04 in 10.0 mi Calm Calm - N/A   Mostly Cloudy
4:15 AM 57.2 °F 55.4 °F 94% 30.04 in 10.0 mi Calm Calm - N/A   Scattered Clouds
4:35 AM 59.0 °F 55.4 °F 88% 30.04 in 10.0 mi Calm Calm - N/A   Mostly Cloudy
4:55 AM 57.2 °F 55.4 °F 94% 30.04 in 10.0 mi Calm Calm - N/A   Mostly Cloudy
5:15 AM 57.2 °F 55.4 °F 94% 30.04 in 10.0 mi Calm Calm - N/A   Scattered Clouds
5:35 AM 57.2 °F 55.4 °F 94% 30.05 in 10.0 mi Calm Calm - N/A   Mostly Cloudy
5:55 AM 59.0 °F 55.4 °F 88% 30.04 in 10.0 mi Calm Calm - N/A   Scattered Clouds
6:15 AM 57.2 °F 55.4 °F 94% 30.05 in 10.0 mi Calm Calm - N/A   Scattered Clouds
6:35 AM 57.2 °F 55.4 °F 94% 30.05 in 10.0 mi Calm Calm - N/A   Partly Cloudy
6:55 AM 59.0 °F 55.4 °F 88% 30.05 in 10.0 mi Calm Calm - N/A   Scattered Clouds
7:15 AM 60.8 °F 55.4 °F 82% 30.05 in 10.0 mi Calm Calm - N/A   Mostly Cloudy
7:35 AM 60.8 °F 55.4 °F 82% 30.05 in 10.0 mi Calm Calm - N/A   Overcast
7:55 AM 62.6 °F 57.2 °F 82% 30.05 in 10.0 mi Calm Calm - N/A   Mostly Cloudy
8:15 AM 62.6 °F 57.2 °F 82% 30.05 in 10.0 mi Calm Calm - N/A   Scattered Clouds
8:35 AM 64.4 °F 57.2 °F 77% 30.05 in 9.0 mi Calm Calm - N/A   Mostly Cloudy
8:55 AM 64.4 °F 57.2 °F 77% 30.06 in 8.0 mi Calm Calm - N/A   Partly Cloudy
9:15 AM 66.2 °F 55.4 °F 68% 30.06 in 8.0 mi Calm Calm - N/A   Mostly Cloudy
9:35 AM 69.8 °F 57.2 °F 64% 30.06 in 10.0 mi Calm Calm - N/A   Scattered Clouds
9:55 AM 69.8 °F 55.4 °F 60% 30.06 in 10.0 mi Calm Calm - N/A   Mostly Cloudy
10:15 AM 71.6 °F 53.6 °F 53% 30.06 in 10.0 mi NNE 4.6 mph - N/A   Mostly Cloudy
10:35 AM 73.4 °F 53.6 °F 50% 30.06 in 10.0 mi NNE 6.9 mph - N/A   Mostly Cloudy
10:55 AM 73.4 °F 51.8 °F 47% 30.06 in 10.0 mi NE 6.9 mph - N/A   Mostly Cloudy
11:15 AM 73.4 °F 48.2 °F 41% 30.06 in 10.0 mi NNE 5.8 mph - N/A   Scattered Clouds
11:35 AM 73.4 °F 48.2 °F 41% 30.06 in 10.0 mi Calm Calm - N/A   Partly Cloudy
11:55 AM 73.4 °F 48.2 °F 41% 30.06 in 10.0 mi NNE 4.6 mph - N/A   Partly Cloudy
12:15 PM 73.4 °F 48.2 °F 41% 30.06 in 10.0 mi Calm Calm - N/A   Scattered Clouds
12:35 PM 73.4 °F 48.2 °F 41% 30.07 in 10.0 mi Calm Calm - N/A   Scattered Clouds
12:55 PM 75.2 °F 50.0 °F 41% 30.06 in 10.0 mi Calm Calm - N/A   Mostly Cloudy
1:15 PM 73.4 °F 51.8 °F 47% 30.07 in 10.0 mi SSW 4.6 mph - N/A   Overcast
1:35 PM 73.4 °F 51.8 °F 47% 30.06 in 10.0 mi Calm Calm - N/A   Overcast
1:55 PM 73.4 °F 50.0 °F 44% 30.05 in 10.0 mi SSW 4.6 mph - N/A   Mostly Cloudy
2:15 PM 75.2 °F 50.0 °F 41% 30.05 in 10.0 mi Calm Calm - N/A   Clear
2:35 PM 75.2 °F 50.0 °F 41% 30.05 in 10.0 mi South 4.6 mph - N/A   Partly Cloudy
2:55 PM 75.2 °F 50.0 °F 41% 30.05 in 10.0 mi Calm Calm - N/A   Scattered Clouds
3:15 PM 75.2 °F 51.8 °F 44% 30.05 in 10.0 mi SSW 4.6 mph - N/A   Mostly Cloudy
3:35 PM 75.2 °F 50.0 °F 41% 30.06 in 10.0 mi West 4.6 mph - N/A   Mostly Cloudy
3:55 PM 75.2 °F 51.8 °F 44% 30.06 in 10.0 mi WSW 6.9 mph - N/A   Mostly Cloudy
4:15 PM 75.2 °F 53.6 °F 47% 30.06 in 10.0 mi SW 6.9 mph - N/A   Overcast
4:35 PM 75.2 °F 53.6 °F 47% 30.06 in 10.0 mi SW 5.8 mph - N/A   Mostly Cloudy
4:55 PM 75.2 °F 53.6 °F 47% 30.06 in 10.0 mi WSW 6.9 mph - N/A   Mostly Cloudy
5:15 PM 73.4 °F 53.6 °F 50% 30.06 in 10.0 mi West 6.9 mph - N/A   Scattered Clouds
5:35 PM 73.4 °F 51.8 °F 47% 30.06 in 10.0 mi West 5.8 mph - N/A   Mostly Cloudy
5:55 PM 75.2 °F 53.6 °F 47% 30.06 in 10.0 mi West 4.6 mph - N/A   Partly Cloudy
6:15 PM 73.4 °F 53.6 °F 50% 30.05 in 10.0 mi SW 5.8 mph - N/A   Clear
6:35 PM 73.4 °F 53.6 °F 50% 30.05 in 10.0 mi SW 4.6 mph - N/A   Partly Cloudy
6:55 PM 73.4 °F 53.6 °F 50% 30.05 in 10.0 mi Calm Calm - N/A   Clear
7:15 PM 73.4 °F 55.4 °F 53% 30.05 in 10.0 mi Calm Calm - N/A   Clear
7:35 PM 71.6 °F 55.4 °F 57% 30.06 in 10.0 mi WSW 4.6 mph - N/A   Clear
7:55 PM 71.6 °F 57.2 °F 60% 30.06 in 10.0 mi Calm Calm - N/A   Clear
8:15 PM 69.8 °F 57.2 °F 64% 30.05 in 10.0 mi Calm Calm - N/A   Clear
8:35 PM 69.8 °F 57.2 °F 64% 30.05 in 10.0 mi Calm Calm - N/A   Clear
8:55 PM 68.0 °F 57.2 °F 68% 30.04 in 10.0 mi Calm Calm - N/A   Clear
9:15 PM 66.2 °F 57.2 °F 73% 30.04 in 10.0 mi Calm Calm - N/A   Clear
9:35 PM 66.2 °F 57.2 °F 73% 30.04 in 10.0 mi Calm Calm - N/A   Clear
9:55 PM 66.2 °F 59.0 °F 78% 30.06 in 10.0 mi Calm Calm - N/A   Clear
10:15 PM 66.2 °F 57.2 °F 73% 30.07 in 10.0 mi Calm Calm - N/A   Clear
10:35 PM 66.2 °F 59.0 °F 78% 30.08 in 10.0 mi Calm Calm - N/A   Clear
10:55 PM 66.2 °F 59.0 °F 78% 30.09 in 10.0 mi Calm Calm - N/A   Clear
11:15 PM 66.2 °F 59.0 °F 78% 30.08 in 10.0 mi Calm Calm - N/A   Clear
11:35 PM 66.2 °F 59.0 °F 78% 30.08 in 10.0 mi Calm Calm - N/A   Clear
11:55 PM 66.2 °F 59.0 °F 78% 30.08 in 10.0 mi Calm Calm - N/A   Clear